Location: ??????
(36.0418°N, 43.6351°E)
Time: 05:17:18
(UTC+00:00)

Cosmos 883 Rocket - Pass Details

Date: 22 June 2021
Orbit: 950 x 996 km, 83.0° (Epoch: 27 July)

Event Time Altitude Azimuth Distance (km) Brightness Sun altitude
Rises 00:09:01 0° 353° (N) 3,634 8.1 -16.7°
Reaches altitude 10° 00:11:31 10° 353° (N) 2,682 7.4 -16.3°
Maximum altitude 00:17:40 90° 261° (W) 955 4.4 -15.5°
Drops below altitude 10° 00:23:45 10° 176° (S) 2,667 6.4 -14.6°
Enters shadow 00:25:07 - 176° (S) 3,182 6.8 -14.4°
